Location: Ambrosina
(19.9365°S, 43.9833°W)
Time: 00:53:30
(UTC+00:00)

Meteor 2-15 Rocket - Pass Details

Date: 11 May 2021
Orbit: 940 x 955 km, 82.5° (Epoch: 20 June)

Event Time Altitude Azimuth Distance (km) Brightness Sun altitude
Rises 21:25:41 0° 179° (S) 3,628 7.3 -13.6°
Reaches altitude 10° 21:28:14 10° 175° (S) 2,676 6.6 -14.2°
Maximum altitude 21:34:16 60° 96° (E) 1,072 4.4 -15.6°
Drops below altitude 10° 21:40:13 10° 16° (NNE) 2,645 6.7 -16.9°
Sets 21:42:43 0° 13° (NNE) 3,583 7.5 -17.5°
